Simultaneous Nadir Overpasses (SNOs) Predictions

Prediction of SNOs between GOES-16 and METOP-C Satellite Orbit:

Table of predicted SNOs for the next 14.0 days since TLE Epoch: 1/23/2022
Index Date Time (GOES-16) GOES-16 Lat,Lon METOP-C Lat,Lon Distance(km) Time Diff (sec)
1 01/23/2022 14:49:05 0.01, -75.21 0.83, -78.96 426.78 80
2 01/24/2022 14:25:46 0.00, -75.21 -0.28, -73.96 142.95 80
3 01/26/2022 02:47:27 -0.01, -75.20 -0.77, -78.55 382.73 80
4 01/27/2022 02:24:09 0.00, -75.20 0.40, -73.57 186.98 80
5 01/28/2022 14:45:39 0.00, -75.24 0.65, -78.12 328.23 80
6 01/29/2022 14:22:19 -0.00, -75.25 -0.46, -73.12 241.66 80
7 01/31/2022 02:44:01 -0.00, -75.24 -0.58, -77.72 283.50 80
8 02/01/2022 02:20:42 -0.01, -75.25 0.59, -72.74 286.95 80
9 02/02/2022 14:42:13 0.02, -75.30 0.46, -77.29 226.78 80
10 02/03/2022 14:18:53 0.02, -75.31 -0.65, -72.29 344.35 80
11 02/05/2022 02:40:34 -0.03, -75.32 -0.38, -76.89 178.90 80
12 02/06/2022 02:17:15 -0.02, -75.34 0.73, -71.89 392.58 80
